FIN24K EFHK-EFKT

Flight info

Callsign FIN24K
Flight time 1h 13m
Altitude 36000
Route TEVRU Y75 EVIMI
Aircraft A320/M-SDE3FGHIRWY/LB1

Departure

Time 2026-04-26 16:11
Airport Helsinki Vantaa Airport (EFHK)

Arrival

Time 2026-04-26 17:24
Airport Kittilä International Airport (EFKT)
Time Latitude Longitude Altitude Speed Heading
2026-04-26 15:49 60.31945 24.96922 167 ft 0 kts 242°
2026-04-26 15:59 60.31954 24.96958 166 ft 4 kts 241°
2026-04-26 15:59 60.31969 24.97004 166 ft 4 kts 226°
2026-04-26 15:59 60.31986 24.97026 166 ft 3 kts 160°
2026-04-26 15:59 60.31990 24.97024 166 ft 0 kts 153°
2026-04-26 16:02 60.31988 24.97026 166 ft 2 kts 153°
2026-04-26 16:02 60.31985 24.97029 166 ft 0 kts 152°
2026-04-26 16:03 60.31978 24.97036 166 ft 3 kts 152°
2026-04-26 16:03 60.31950 24.97067 166 ft 7 kts 152°
2026-04-26 16:03 60.31895 24.97123 166 ft 11 kts 153°
2026-04-26 16:03 60.31818 24.97201 166 ft 14 kts 154°
2026-04-26 16:04 60.31720 24.97300 166 ft 15 kts 153°
2026-04-26 16:04 60.31637 24.97390 165 ft 13 kts 141°
2026-04-26 16:04 60.31618 24.97555 158 ft 15 kts 137°
2026-04-26 16:04 60.31516 24.97662 159 ft 17 kts 153°
2026-04-26 16:05 60.31406 24.97774 156 ft 18 kts 154°
2026-04-26 16:05 60.31291 24.97892 158 ft 19 kts 152°
2026-04-26 16:05 60.31170 24.98020 159 ft 16 kts 153°
2026-04-26 16:05 60.31064 24.98127 158 ft 18 kts 154°
2026-04-26 16:06 60.30950 24.98229 158 ft 18 kts 157°
2026-04-26 16:06 60.30831 24.98332 159 ft 19 kts 156°
2026-04-26 16:06 60.30726 24.98426 158 ft 15 kts 155°
2026-04-26 16:06 60.30663 24.98544 157 ft 8 kts 108°
2026-04-26 16:07 60.30662 24.98586 157 ft 0 kts 84°
2026-04-26 16:08 60.30668 24.98635 156 ft 10 kts 71°
2026-04-26 16:09 60.30695 24.98735 158 ft 12 kts 54°
2026-04-26 16:09 60.30764 24.98773 158 ft 11 kts 340°
2026-04-26 16:09 60.30776 24.98760 158 ft 0 kts 331°
2026-04-26 16:10 60.30777 24.98760 158 ft 1 kts 331°
2026-04-26 16:10 60.30817 24.98716 157 ft 24 kts 333°
2026-04-26 16:10 60.31188 24.98337 158 ft 92 kts 333°
2026-04-26 16:11 60.31926 24.97574 202 ft 139 kts 332°
2026-04-26 16:11 60.32756 24.96697 921 ft 133 kts 333°
2026-04-26 16:11 60.33600 24.95830 1525 ft 144 kts 335°
2026-04-26 16:11 60.34556 24.94868 1898 ft 162 kts 335°
2026-04-26 16:12 60.35637 24.93770 2190 ft 186 kts 335°
2026-04-26 16:12 60.36885 24.92493 2496 ft 214 kts 334°
2026-04-26 16:12 60.39617 24.89619 4145 ft 227 kts 334°
2026-04-26 16:13 60.41055 24.88142 5063 ft 230 kts 334°
2026-04-26 16:13 60.42509 24.86725 5969 ft 232 kts 341°
2026-04-26 16:13 60.44106 24.86260 6833 ft 235 kts 356°
2026-04-26 16:13 60.45745 24.86126 7697 ft 237 kts 355°
2026-04-26 16:14 60.47408 24.85973 8539 ft 241 kts 355°
2026-04-26 16:14 60.49096 24.85807 9358 ft 245 kts 355°
2026-04-26 16:14 60.52636 24.85453 10384 ft 274 kts 356°
2026-04-26 16:15 60.54618 24.85254 10643 ft 295 kts 356°
2026-04-26 16:15 60.56697 24.85048 11210 ft 303 kts 356°
2026-04-26 16:15 60.58821 24.84837 11902 ft 308 kts 356°
2026-04-26 16:16 60.63162 24.84397 13295 ft 317 kts 356°
2026-04-26 16:16 60.65383 24.84167 13973 ft 320 kts 356°
2026-04-26 16:16 60.67591 24.83942 14560 ft 325 kts 356°
2026-04-26 16:16 60.69862 24.83712 15155 ft 329 kts 356°
2026-04-26 16:17 60.72198 24.83473 15749 ft 333 kts 356°
2026-04-26 16:17 60.74491 24.83234 16354 ft 337 kts 356°
2026-04-26 16:17 60.76841 24.82993 17029 ft 339 kts 356°
2026-04-26 16:17 60.79214 24.82750 17572 ft 344 kts 356°
2026-04-26 16:18 60.81629 24.82536 18060 ft 351 kts 359°
2026-04-26 16:18 60.86548 24.83536 19110 ft 359 kts
2026-04-26 16:19 60.91562 24.84716 20106 ft 367 kts
2026-04-26 16:19 60.94103 24.85306 20679 ft 368 kts
2026-04-26 16:19 60.99202 24.86510 21867 ft 369 kts
2026-04-26 16:20 61.01749 24.87116 22490 ft 369 kts
2026-04-26 16:20 61.06876 24.88333 23470 ft 373 kts
2026-04-26 16:20 61.09465 24.88948 23847 ft 376 kts
2026-04-26 16:21 61.12069 24.89570 24229 ft 378 kts
2026-04-26 16:21 61.14687 24.90198 24618 ft 380 kts
2026-04-26 16:21 61.17332 24.90834 24905 ft 385 kts
2026-04-26 16:21 61.20003 24.91475 25233 ft 387 kts
2026-04-26 16:22 61.22689 24.92121 25577 ft 389 kts
2026-04-26 16:22 61.25386 24.92771 25924 ft 391 kts
2026-04-26 16:22 61.28098 24.93426 26267 ft 394 kts
2026-04-26 16:22 61.30826 24.94091 26606 ft 396 kts
2026-04-26 16:23 61.33566 24.94761 26938 ft 398 kts
2026-04-26 16:23 61.36321 24.95435 27265 ft 400 kts
2026-04-26 16:23 61.39089 24.96111 27582 ft 401 kts
2026-04-26 16:23 61.41865 24.96783 27894 ft 403 kts
2026-04-26 16:24 61.44660 24.97460 28226 ft 405 kts
2026-04-26 16:24 61.47475 24.98145 28449 ft 409 kts
2026-04-26 16:24 61.50315 24.98842 28691 ft 412 kts
2026-04-26 16:24 61.53172 24.99548 28967 ft 414 kts
2026-04-26 16:25 61.56042 25.00265 29245 ft 416 kts
2026-04-26 16:25 61.58924 25.00987 29504 ft 418 kts
2026-04-26 16:25 61.61821 25.01587 29759 ft 418 kts 360°
2026-04-26 16:25 61.64737 25.01699 29979 ft 420 kts 359°
2026-04-26 16:26 61.67664 25.01799 30169 ft 422 kts 359°
2026-04-26 16:26 61.69611 25.01865 30300 ft 422 kts 359°
2026-04-26 16:26 61.73538 25.02000 30638 ft 422 kts 359°
2026-04-26 16:26 61.76475 25.02109 30903 ft 422 kts 359°
2026-04-26 16:27 61.79422 25.02225 31085 ft 424 kts 359°
2026-04-26 16:27 61.82377 25.02342 31263 ft 425 kts 359°
2026-04-26 16:27 61.85332 25.02455 31575 ft 423 kts 359°
2026-04-26 16:27 61.88275 25.02569 31874 ft 422 kts 359°
2026-04-26 16:28 61.91212 25.02685 32131 ft 422 kts 359°
2026-04-26 16:28 61.94150 25.02804 32388 ft 423 kts 359°
2026-04-26 16:28 61.97090 25.02921 32637 ft 423 kts 359°
2026-04-26 16:28 62.00035 25.03030 32875 ft 423 kts 359°
2026-04-26 16:29 62.02980 25.03138 33118 ft 423 kts 359°
2026-04-26 16:29 62.05926 25.03246 33376 ft 423 kts 359°
2026-04-26 16:29 62.08874 25.03356 33636 ft 424 kts 359°
2026-04-26 16:29 62.11822 25.03472 33851 ft 425 kts 359°
2026-04-26 16:30 62.14781 25.03590 34022 ft 426 kts 359°
2026-04-26 16:30 62.17747 25.03708 34216 ft 427 kts 359°
2026-04-26 16:30 62.20719 25.03821 34420 ft 427 kts 359°
2026-04-26 16:30 62.23651 25.03932 34592 ft 427 kts 359°
2026-04-26 16:31 62.26632 25.04045 34786 ft 428 kts 359°
2026-04-26 16:31 62.29607 25.04156 34963 ft 428 kts 359°
2026-04-26 16:31 62.32590 25.04269 35137 ft 429 kts 359°
2026-04-26 16:31 62.35574 25.04386 35305 ft 429 kts 359°
2026-04-26 16:32 62.38559 25.04502 35469 ft 429 kts 359°
2026-04-26 16:32 62.40533 25.04578 35581 ft 429 kts 359°
2026-04-26 16:32 62.44530 25.04727 35799 ft 430 kts 359°
2026-04-26 16:32 62.47523 25.04843 35849 ft 430 kts 359°
2026-04-26 16:33 62.53512 25.05090 35854 ft 430 kts 360°
2026-04-26 16:33 62.59491 25.05339 35853 ft 429 kts 359°
2026-04-26 16:34 62.65451 25.05571 35855 ft 428 kts 359°
2026-04-26 16:34 62.71413 25.05790 35869 ft 428 kts 359°
2026-04-26 16:35 62.77371 25.06011 35876 ft 429 kts 359°
2026-04-26 16:35 62.83343 25.06251 35870 ft 429 kts 359°
2026-04-26 16:36 62.89316 25.06501 35861 ft 430 kts 359°
2026-04-26 16:36 62.95253 25.06734 35861 ft 430 kts 359°
2026-04-26 16:37 63.01231 25.06963 35866 ft 430 kts 359°
2026-04-26 16:37 63.07208 25.07204 35872 ft 429 kts 359°
2026-04-26 16:38 63.13185 25.07458 35867 ft 430 kts 359°
2026-04-26 16:38 63.19173 25.07702 35858 ft 431 kts 359°
2026-04-26 16:39 63.25171 25.07940 35861 ft 431 kts 359°
2026-04-26 16:39 63.31177 25.08181 35858 ft 432 kts 359°
2026-04-26 16:40 63.37178 25.08432 35881 ft 431 kts 359°
2026-04-26 16:40 63.43174 25.08686 35894 ft 431 kts 359°
2026-04-26 16:41 63.49174 25.08933 35876 ft 431 kts 359°
2026-04-26 16:41 63.55182 25.09170 35872 ft 432 kts 359°
2026-04-26 16:42 63.61194 25.09417 35879 ft 432 kts 359°
2026-04-26 16:42 63.67209 25.09679 35882 ft 432 kts 359°
2026-04-26 16:43 63.73230 25.09937 35877 ft 433 kts 359°
2026-04-26 16:43 63.79256 25.10173 35896 ft 433 kts 359°
2026-04-26 16:44 63.85291 25.10412 35882 ft 434 kts 360°
2026-04-26 16:44 63.91332 25.10665 35902 ft 434 kts 360°
2026-04-26 16:45 63.97377 25.10918 35897 ft 435 kts 360°
2026-04-26 16:45 64.03424 25.11167 35893 ft 435 kts 360°
2026-04-26 16:46 64.09469 25.11434 35900 ft 434 kts 359°
2026-04-26 16:46 64.15504 25.11692 35895 ft 434 kts 359°
2026-04-26 16:47 64.21491 25.11942 35901 ft 434 kts 359°
2026-04-26 16:47 64.27527 25.12200 35899 ft 434 kts 359°
2026-04-26 16:48 64.33562 25.12459 35900 ft 434 kts 359°
2026-04-26 16:48 64.39599 25.12720 35888 ft 434 kts 359°
2026-04-26 16:49 64.45629 25.12953 35904 ft 434 kts 359°
2026-04-26 16:49 64.51672 25.12977 35899 ft 434 kts 358°
2026-04-26 16:50 64.57723 25.12932 35895 ft 435 kts 359°
2026-04-26 16:50 64.63774 25.12899 35886 ft 435 kts 359°
2026-04-26 16:51 64.69821 25.12890 35886 ft 435 kts 359°
2026-04-26 16:51 64.75866 25.12902 35884 ft 435 kts 359°
2026-04-26 16:52 64.79880 25.12901 35885 ft 435 kts 359°
2026-04-26 16:52 64.86965 25.12896 35882 ft 436 kts 359°
2026-04-26 16:53 64.93028 25.12897 35882 ft 436 kts 359°
2026-04-26 16:53 64.99102 25.12906 35886 ft 436 kts 359°
2026-04-26 16:54 65.05169 25.12918 35889 ft 436 kts 359°
2026-04-26 16:54 65.11236 25.12916 35889 ft 436 kts 359°
2026-04-26 16:55 65.17309 25.12926 35896 ft 437 kts 359°
2026-04-26 16:55 65.23386 25.12906 35886 ft 437 kts 359°
2026-04-26 16:56 65.32504 25.12844 35877 ft 437 kts 359°
2026-04-26 16:57 65.38581 25.12594 35883 ft 437 kts 357°
2026-04-26 16:57 65.47699 25.11891 35897 ft 437 kts 357°
2026-04-26 16:58 65.52754 25.11516 35893 ft 438 kts 357°
2026-04-26 16:59 65.62927 25.10799 35900 ft 438 kts 357°
2026-04-26 17:00 65.75084 25.09961 35908 ft 438 kts 357°
2026-04-26 17:00 65.84272 25.09333 35718 ft 439 kts 357°
2026-04-26 17:01 65.87289 25.09126 35500 ft 438 kts 357°
2026-04-26 17:01 65.90343 25.08913 34801 ft 441 kts 357°
2026-04-26 17:01 65.93420 25.08693 33946 ft 444 kts 357°
2026-04-26 17:01 65.96523 25.08469 32944 ft 447 kts 357°
2026-04-26 17:02 65.99624 25.08246 32069 ft 445 kts 357°
2026-04-26 17:02 66.02705 25.08023 31475 ft 439 kts 357°
2026-04-26 17:02 66.05735 25.07804 30882 ft 433 kts 357°
2026-04-26 17:02 66.08727 25.07596 30291 ft 428 kts 357°
2026-04-26 17:03 66.11689 25.07385 29649 ft 423 kts 357°
2026-04-26 17:03 66.14603 25.07174 29073 ft 416 kts 357°
2026-04-26 17:03 66.17469 25.06963 28532 ft 409 kts 357°
2026-04-26 17:03 66.20291 25.06753 27971 ft 403 kts 357°
2026-04-26 17:04 66.23073 25.06546 27422 ft 397 kts 357°
2026-04-26 17:04 66.25804 25.06343 26915 ft 391 kts 358°
2026-04-26 17:04 66.28503 25.06147 26397 ft 385 kts 358°
2026-04-26 17:04 66.31166 25.05948 25896 ft 380 kts 358°
2026-04-26 17:05 66.33794 25.05755 25389 ft 376 kts 358°
2026-04-26 17:05 66.36390 25.05569 24913 ft 371 kts 358°
2026-04-26 17:05 66.38954 25.05388 24442 ft 366 kts 358°
2026-04-26 17:05 66.41486 25.05212 23995 ft 362 kts 358°
2026-04-26 17:06 66.43990 25.05034 23552 ft 358 kts 358°
2026-04-26 17:06 66.46467 25.04849 23065 ft 354 kts 358°
2026-04-26 17:06 66.48909 25.04657 22651 ft 348 kts 358°
2026-04-26 17:06 66.51304 25.04476 22250 ft 342 kts 358°
2026-04-26 17:07 66.53668 25.04303 21866 ft 337 kts 358°
2026-04-26 17:07 66.56000 25.04132 21462 ft 333 kts 358°
2026-04-26 17:07 66.58299 25.03962 21060 ft 329 kts 358°
2026-04-26 17:07 66.60570 25.03794 20666 ft 324 kts 358°
2026-04-26 17:08 66.62820 25.03629 20271 ft 323 kts 358°
2026-04-26 17:08 66.65059 25.03468 19869 ft 321 kts 358°
2026-04-26 17:08 66.67288 25.03310 19470 ft 320 kts 358°
2026-04-26 17:08 66.69509 25.03145 19062 ft 319 kts 358°
2026-04-26 17:09 66.71724 25.02976 18653 ft 318 kts 358°
2026-04-26 17:09 66.73187 25.02862 18382 ft 317 kts 358°
2026-04-26 17:09 66.76126 25.02636 17781 ft 315 kts 358°
2026-04-26 17:09 66.78311 25.02469 17378 ft 313 kts 357°
2026-04-26 17:10 66.80485 25.02297 16980 ft 312 kts 357°
2026-04-26 17:10 66.82647 25.02124 16578 ft 310 kts 357°
2026-04-26 17:10 66.84798 25.01964 16179 ft 308 kts 357°
2026-04-26 17:10 66.86936 25.01805 15787 ft 307 kts 357°
2026-04-26 17:11 66.89066 25.01646 15392 ft 306 kts 357°
2026-04-26 17:11 66.91196 25.01483 14996 ft 305 kts 356°
2026-04-26 17:11 66.93314 25.01315 14603 ft 304 kts 356°
2026-04-26 17:11 66.95423 25.01148 14204 ft 303 kts 356°
2026-04-26 17:12 66.99623 25.00825 13386 ft 301 kts 356°
2026-04-26 17:12 67.01714 25.00664 12979 ft 299 kts 356°
2026-04-26 17:13 67.05839 25.00348 12175 ft 295 kts 357°
2026-04-26 17:13 67.07883 25.00189 11770 ft 293 kts 357°
2026-04-26 17:13 67.11935 24.99873 10950 ft 290 kts 357°
2026-04-26 17:14 67.13944 24.99713 10556 ft 288 kts 357°
2026-04-26 17:14 67.17836 24.99414 10106 ft 273 kts 357°
2026-04-26 17:14 67.19719 24.99267 9848 ft 269 kts 358°
2026-04-26 17:15 67.23438 24.98984 9105 ft 264 kts 358°
2026-04-26 17:15 67.25265 24.98838 8714 ft 262 kts 358°
2026-04-26 17:15 67.27077 24.98692 8345 ft 259 kts 358°
2026-04-26 17:16 67.28871 24.98543 7956 ft 257 kts 357°
2026-04-26 17:16 67.30652 24.98396 7562 ft 255 kts 357°
2026-04-26 17:16 67.32422 24.98256 7175 ft 253 kts 357°
2026-04-26 17:16 67.34180 24.98120 6787 ft 251 kts 357°
2026-04-26 17:17 67.35919 24.97984 6394 ft 250 kts 357°
2026-04-26 17:17 67.37651 24.97851 5994 ft 248 kts 357°
2026-04-26 17:17 67.39371 24.97723 5575 ft 246 kts 357°
2026-04-26 17:17 67.41070 24.97594 4959 ft 243 kts 357°
2026-04-26 17:18 67.42753 24.97464 4280 ft 241 kts 357°
2026-04-26 17:18 67.44396 24.97331 3888 ft 239 kts 357°
2026-04-26 17:18 67.46089 24.97190 3835 ft 241 kts 357°
2026-04-26 17:18 67.47767 24.97046 3832 ft 242 kts 357°
2026-04-26 17:19 67.51003 24.96700 3808 ft 211 kts 352°
2026-04-26 17:19 67.52369 24.96080 3810 ft 193 kts 347°
2026-04-26 17:19 67.53643 24.95306 3807 ft 181 kts 346°
2026-04-26 17:20 67.54788 24.94579 3843 ft 161 kts 346°
2026-04-26 17:20 67.55506 24.94120 3792 ft 155 kts 346°
2026-04-26 17:20 67.56873 24.93242 3563 ft 150 kts 346°
2026-04-26 17:20 67.57882 24.92593 3356 ft 149 kts 346°
2026-04-26 17:21 67.58882 24.91950 3134 ft 148 kts 345°
2026-04-26 17:21 67.59876 24.91309 2898 ft 145 kts 346°
2026-04-26 17:21 67.60818 24.90701 2686 ft 136 kts 346°
2026-04-26 17:21 67.61726 24.90115 2466 ft 133 kts 345°
2026-04-26 17:22 67.62623 24.89536 2236 ft 132 kts 345°
2026-04-26 17:22 67.63508 24.88964 2032 ft 131 kts 344°
2026-04-26 17:22 67.64393 24.88391 1821 ft 131 kts 344°
2026-04-26 17:22 67.65279 24.87817 1586 ft 131 kts 345°
2026-04-26 17:23 67.66159 24.87245 1382 ft 130 kts 345°
2026-04-26 17:23 67.67045 24.86674 1158 ft 131 kts 345°
2026-04-26 17:23 67.67925 24.86102 946 ft 129 kts 345°
2026-04-26 17:23 67.68797 24.85550 754 ft 128 kts 345°
2026-04-26 17:24 67.69649 24.84982 648 ft 119 kts 345°
2026-04-26 17:24 67.70324 24.84545 639 ft 68 kts 345°
2026-04-26 17:24 67.70507 24.84423 639 ft 19 kts 347°
2026-04-26 17:24 67.70633 24.84347 640 ft 19 kts 348°
2026-04-26 17:25 67.70727 24.84520 644 ft 19 kts 64°
2026-04-26 17:25 67.70701 24.84745 640 ft 12 kts 160°
2026-04-26 17:25 67.70624 24.84798 640 ft 11 kts 168°
2026-04-26 17:25 67.70554 24.84840 639 ft 10 kts 167°
2026-04-26 17:26 67.70490 24.84881 641 ft 9 kts 166°
2026-04-26 17:26 67.70433 24.84918 645 ft 8 kts 166°
2026-04-26 17:26 67.70382 24.84951 640 ft 7 kts 166°
2026-04-26 17:26 67.70300 24.85004 639 ft 21 kts 166°
2026-04-26 17:27 67.70152 24.85100 640 ft 21 kts 166°
2026-04-26 17:27 67.70019 24.85186 641 ft 19 kts 166°
2026-04-26 17:27 67.69893 24.85270 640 ft 18 kts 166°
2026-04-26 17:27 67.69779 24.85360 637 ft 13 kts 164°
2026-04-26 17:28 67.69693 24.85407 637 ft 12 kts 169°
2026-04-26 17:28 67.69620 24.85456 640 ft 10 kts 165°
2026-04-26 17:28 67.69609 24.85464 643 ft 1 kts 165°
2026-04-26 17:28 67.69570 24.85494 641 ft 8 kts 162°
2026-04-26 17:29 67.69528 24.85536 640 ft 4 kts 144°
2026-04-26 17:29 67.69528 24.85573 640 ft 4 kts 81°
2026-04-26 17:29 67.69542 24.85694 640 ft 2 kts 75°
2026-04-26 17:29 67.69544 24.85706 640 ft 0 kts 75°
2026-04-26 17:30 67.69544 24.85709 640 ft 0 kts 76°